This is the latest recevied weather packets stored in our database for station/object WX4ET. If no packets are shown the sender has not sent any weather packets the latest 1 day(s).
| Time | Temp. | Humidity | Pressure | Rain* | Wind** | Luminosity | Snow |
|---|---|---|---|---|---|---|---|
| 1778042000 | 16.67° C | 83% | 1006.8 hPa | 0 mm | - | 0 W/m² | - |
| 1778041698 | 16.67° C | 82% | 1006.7 hPa | 0 mm | - | 0 W/m² | - |
| 1778041095 | 16.67° C | 82% | 1006.6 hPa | 0 mm | - | 0 W/m² | - |
| 1778040791 | 16.67° C | 82% | 1006.7 hPa | 0 mm | - | 0 W/m² | - |
| 1778040489 | 16.67° C | 81% | 1006.3 hPa | 0 mm | - | 0 W/m² | - |
| 1778040186 | 16.11° C | 81% | 1006.4 hPa | 0 mm | - | 0 W/m² | - |
| 1778038974 | 16.11° C | 82% | 1006.2 hPa | 0 mm | - | 0 W/m² | - |
| 1778038064 | 16.67° C | 81% | 1006.3 hPa | 0 mm | - | 0 W/m² | - |
| 1778037458 | 16.67° C | 81% | 1006.2 hPa | 0 mm | - | 0 W/m² | - |
| 1778037155 | 16.67° C | 80% | 1006.2 hPa | 0 mm | - | 0 W/m² | - |
| 1778036854 | 16.67° C | 81% | 1006.4 hPa | 0 mm | - | 0 W/m² | - |
| 1778036551 | 16.11° C | 81% | 1006.3 hPa | 0 mm | - | 0 W/m² | - |
| 1778035944 | 16.67° C | 80% | 1006.2 hPa | 0 mm | - | 0 W/m² | - |
| 1778035641 | 16.67° C | 80% | 1006.2 hPa | 0 mm | - | 0 W/m² | - |
| 1778035337 | 16.67° C | 80% | 1006.3 hPa | 0 mm | - | 0 W/m² | - |
| 1778035034 | 17.22° C | 78% | 1006.3 hPa | 0 mm | - | 0 W/m² | - |
| 1778034731 | 17.22° C | 77% | 1005.9 hPa | 0 mm | - | 0 W/m² | - |
| 1778034428 | 17.78° C | 77% | 1006.1 hPa | 0 mm | - | 0 W/m² | - |
| 1778034126 | 17.78° C | 75% | 1005.9 hPa | 0 mm | - | 0 W/m² | - |
| 1778033217 | 18.33° C | 74% | 1005.9 hPa | 0 mm | - | 0 W/m² | - |
| 1778032612 | 18.89° C | 71% | 1005.9 hPa | 0 mm | - | 0 W/m² | - |
| 1778032310 | 19.44° C | 71% | 1005.8 hPa | 0 mm | - | 0 W/m² | - |
| 1778032007 | 20° C | 68% | 1006.1 hPa | 0 mm | - | 0 W/m² | - |
| 1778031702 | 20° C | 68% | 1006 hPa | 0 mm | - | 0 W/m² | - |
| 1778031401 | 20.56° C | 67% | 1006.1 hPa | 0 mm | - | 0 W/m² | - |
* Rain latest hour (hover to see other rain measurements)
** Current wind speed in m/s (hover to see current wind gust speed)